HULIANWANG DIGUI-52

导读

HULIANWANG DIGUI-52卫星于北京时间2025年8月4日由中国发射,是中国低轨互联网卫星星座的重要组成部分,承担着拓展全球网络覆盖、提升通信服务能力的任务。它将与同星座其他卫星协同组网,为不同区域用户提供高速稳定的卫星互联网接入,推动天地一体化通信网络建设,助力卫星通信产业发展。

基本信息
目录编号:
65109
目录名称:
HULIANWANG DIGUI-52
国际标识:
2025-168D
轨道中心:
EARTH
卫星名称:
HULIANWANG DIGUI-52
卫星全名:
HULIANWANG DIGUI-52
卫星状态:
在轨 (已飞行312 天)
发射日期:
2025-08-04 UTC
国别 :
中国 (CN)
星等 :
--
轨道信息
数据来源 国际轨道数据 AOE轨道数据
星历时间 2026-06-12T13:59:21+0800
14小时前
查看轨道信息
2026-06-11T16:00:00+0800
1天前
查看轨道信息
半长轴 7527.466km 7527.468km
偏心率 0.001071 0.0010603
轨道倾角 50.005° 50.006°
近地点辐角 88.226° 84.577°
升交点赤经 343.450° 346.736°
平近点角 271.984° 208.288°
近地点 1141.267km 1141.349km
远地点 1157.391km 1157.313km
周期 108.326分钟 108.326分钟
每日圈数 13.293201 13.293197
详细信息
使用方式:
暂无
2D轨道图
3D轨道图
轨道高度分析图
轨道倾角分析图
轨道综合分析图
查看轨道综合分析图